Content
SEND FEEDBACK

Daily
Averages
Monthly
Summary
United States of America

CASTLE HAYNE, NORTH CAROLINA


Home > North America > United States > North Carolina
Elevation: 35 feet     Latitude: 34 19N     Longitude: 077 55W

WEATHER
 
SELECT A DAY
Number of Records: 213,275;   Date Range: 1/1/95 - 11/24/14
 
SHARE

PRINT THIS DATA

[ ← Previous Day ]
WEATHER ALMANAC - MAY 4, 2014
[ Next Day → ]
[ °C ]   °F
Weather ElementAverageHighLow
Temperature71.9 °F84.9 °F (3:53 pm)60.1 °F (5:53 am)
Dewpoint49.4 °F55 °F (1:53 am)44.1 °F (12:53 pm)
Humidity47.6 %75 % (1:53 am)25 % (1:53 pm)
Barometer29.94 in30.01 in (9:53 am)29.88 in (4:53 pm)
Wind Speed9.5 mph17.3 mph (7:53 pm)
Wind Gust24.2 mph (6:53 pm)
Weather ElementAverage
Visibility10 mi
Wind DirectionWSW (244.3 °)

Weather ElementTotal
Precipitation---
Cooling Degree Days7.5 (Base 65)
Growing Degree Days22.5 (Base 50)
Averaged from 23 records on May 4, 2014
WEATHER CONDITIONS BREAKOUT
WIND DIRECTION BREAKOUT
WEATHER BY HOUR - MAY 4, 2014
[ °C ]   °F
Local TimeTemperatureDewpointHumidityBarometerVisibilityWind DirectionWind SpeedGust SpeedPrecipitationEventsConditions
1:53 AM63.0 °F55.0 °F75 %29.96 in10.0 miWest (270°)5.8 mphClear
2:53 AM62.1 °F52.0 °F70 %29.95 in10.0 miWest (270°)8.1 mphClear
3:53 AM61.0 °F50.0 °F67 %29.95 in10.0 miWest (280°)4.6 mphClear
4:53 AM61.0 °F50.0 °F67 %29.94 in10.0 miWest (270°)5.8 mphClear
5:53 AM60.1 °F48.9 °F67 %29.96 in10.0 miWNW (290°)8.1 mphClear
6:53 AM61.0 °F48.0 °F62 %29.98 in10.0 miWNW (300°)5.8 mphClear
7:53 AM64.0 °F48.0 °F56 %29.99 in10.0 miNNW (330°)8.1 mphClear
8:53 AM69.1 °F48.9 °F49 %30.00 in10.0 miNNW (330°)8.1 mphClear
9:53 AM73.9 °F46.9 °F38 %30.01 in10.0 miNorth (10°)9.2 mphClear
10:53 AM75.9 °F46.9 °F36 %30.01 in10.0 miNorth (360°)10.4 mphClear
11:53 AM80.1 °F46.0 °F30 %30.00 in10.0 miNNW (330°)11.5 mph19.6 mphClear
12:53 PM81.0 °F44.1 °F27 %29.98 in10.0 miNNW (330°)10.4 mphClear
1:53 PM82.9 °F44.1 °F25 %29.96 in10.0 miVariable6.9 mphClear
2:53 PM82.9 °F46.0 °F27 %29.92 in10.0 miWSW (240°)9.2 mphClear
3:53 PM84.9 °F46.0 °F26 %29.89 in10.0 miWest (280°)11.5 mphClear
4:53 PM81.0 °F55.0 °F41 %29.88 in10.0 miSW (220°)8.1 mphClear
5:53 PM81.0 °F52.0 °F36 %29.88 in10.0 miSSW (200°)15.0 mph19.6 mphClear
6:53 PM75.9 °F50.0 °F40 %29.88 in10.0 miSSW (210°)16.1 mph24.2 mphClear
7:53 PM73.0 °F50.0 °F44 %29.89 in10.0 miSW (220°)17.3 mph24.2 mphClear
8:53 PM71.1 °F51.1 °F49 %29.90 in10.0 miSW (220°)10.4 mphClear
9:53 PM70.0 °F53.1 °F55 %29.92 in10.0 miSW (220°)11.5 mphClear
10:53 PM69.1 °F51.1 °F53 %29.92 in10.0 miSW (220°)8.1 mphClear
11:53 PM69.1 °F52.0 °F54 %29.93 in10.0 miSW (220°)8.1 mphClear
Hourly data recorded from KILM, located miles away from Castle Hayne, North Carolina







STORIES FROM OUR PARTNERS